Weather Roundup
Issued by NWS

Home | Current Version | Previous Version | Text Only | Print | Product List | Glossary On
Versions: 1 2 3 4 5 6 7 8 9 10 11 12 13 14 15 16 17 18 19 20 21 22 23 24 25 26 27 28 29 30 31 32 33 34 35 36 37 38 39 40 41 42 43 44 45 46 47 48 49 50
477
NZUS93 KARX 240859
HRRWXR

CURRENT HOURLY OBSERVATIONS ACROSS
MUCH OF THE UPPER MISSISSIPPI VALLEY
NATIONAL WEATHER SERVICE LA CROSSE WI
400 AM CDT SAT JUN 24 2017


...SOUTHEAST MINNESOTA...


CITY           SKY/WX    TMP DP  RH WIND       PRES   REMARKS
ROCHESTER      CLEAR     51  49  92 W8        29.98R
ROCHESTER/MAYO FAIR      55  47  76 W10       29.97R
WINONA         PTCLDY    59  52  77 NW7       29.94S
AUSTIN         PTCLDY    54  48  82 W8        29.99S
ALBERT LEA     PTCLDY    54  46  76 W8        30.01R
DODGE CENTER   CLEAR     52  46  82 W7        29.98S
PRESTON        CLEAR     53  47  81 W9        29.98R
OWATONNA       PTCLDY    54  46  76 W8        29.99R
FARIBAULT      CLEAR     54  46  76 W10       29.98S
$$

...ELSEWHERE IN MINNESOTA...


CITY           SKY/WX    TMP DP  RH WIND       PRES   REMARKS
MINNEAPOLIS    PTCLDY    57  46  66 W9        29.95S
INTNL FALLS    CLOUDY    52  49  89 W6        29.85S
DULUTH         MOCLDY    52  48  86 NW12G20   29.86R
RED WING       PTCLDY    55  46  71 W6        29.94R
REDWOOD FALLS  CLEAR     50  43  77 W9        30.03S
MANKATO        CLEAR     54  43  66 W14       30.01R
WORTHINGTON    CLEAR     48  42  80 W9        30.09S
FAIRMONT       CLEAR     53  43  68 NW10      30.05S
$$

...SOUTHWEST WISCONSIN...


CITY           SKY/WX    TMP DP  RH WIND       PRES   REMARKS
LA CROSSE      PTCLDY    62  52  69 N3        29.93R
PRAIRIE DU CHI PTCLDY    58  51  76 NW5       29.95S
BOSCOBEL       CLEAR     59  53  80 SW5       29.93S
LONE ROCK      NOT AVBL
PLATTEVILLE    PTCLDY    59  55  87 W7        29.94S
FORT MC COY    CLOUDY    58  54  84 W5        29.93R
MAUSTON-NEW LI PTSUNNY   60  53  78 W7        29.90R
VIROQUA        FAIR      56  54  92 W8        29.93S
WIS DELLS      MOCLDY    57  53  85 W9        29.89S
$$

...ELSEWHERE IN WISCONSIN...


CITY           SKY/WX    TMP DP  RH WIND       PRES   REMARKS
MILWAUKEE      CLEAR     63  54  72 W6        29.86R
MADISON        PTCLDY    59  54  83 W8        29.88S
GREEN BAY      CLOUDY    60  55  83 W12       29.81R
EAU CLAIRE     NOT AVBL
BLACK RVR FLS  FAIR      56  51  83 W7        29.92R
MEDFORD        CLOUDY    54  50  87 NW9       29.87S
WAUSAU         CLOUDY    56  53  90 W8        29.84R
WIS RAPIDS     CLOUDY    58  53  84 NW10      29.89R
MARSHFIELD     LGT RAIN  55  51  86 NW12      29.87S
RICE LAKE      PTCLDY    54  48  79 W8        29.92S
$$

...NORTHEAST IOWA...


CITY           SKY/WX    TMP DP  RH WIND       PRES   REMARKS
WATERLOO       CLEAR     55  50  83 W7        30.00S
DUBUQUE        CLEAR     58  51  78 NW12      29.95S
DECORAH        PTCLDY    55  50  82 VRB5      29.96S
MASON CITY     PTCLDY    52  46  80 W10       30.04R
CHARLES CITY   PTCLDY    54  54 100 W8        30.01S
OELWEIN        CLEAR     54  54 100 NW8       30.00S
$$

...ELSEWHERE IN IOWA...


CITY           SKY/WX    TMP DP  RH WIND       PRES   REMARKS
DES MOINES     CLEAR     57  50  77 W6        30.06S
IOWA CITY      CLEAR     60  52  74 NW9       30.01R
FORT DODGE     CLEAR     55  43  62 NW6       30.08R
MARSHALLTOWN   CLEAR     53  50  89 W8        30.03R
CEDAR RAPIDS   CLEAR     56  53  90 NW10      29.99R
$$

...NORTHERN ILLINOIS...


CITY           SKY/WX    TMP DP  RH WIND       PRES   REMARKS
CHICAGO-OHARE  CLEAR     63  55  75 W10       29.88R
CHICAGO-MIDWAY CLEAR     64  56  75 W8        29.88R
MOLINE         CLEAR     63  53  70 NW14      29.97R
ROCKFORD       CLEAR     62  54  74 NW9       29.91S
PEORIA         CLEAR     62  56  80 NW7       29.97R
$$

NOTE: "FAIR" INDICATES FEW OR NO CLOUDS BELOW 12,000 FEET WITH NO
SIGNIFICANT WEATHER AND/OR OBSTRUCTIONS TO VISIBILITY. WIND
SPEEDS ARE IN MILES-PER-HOUR.




USA.gov is the U.S. government's official web portal to all federal, state and local government web resources and services.